period_start,C,m1,H,J0,J1,J2,J3,J4,J5,JA,JB,JC,JD,JJ,JK,JN,#
2016-04-24 00:00:26,0.08,1.53,0.00,16.10,20.88,24.73,15.27,49.27,1034.19,2061.96,2983.92,2760.33,3116.08,600.24,621.04,14.38,0000 0000 0000 0000 000000
2016-04-24 00:05:27,0.06,1.53,0.00,16.13,20.91,24.76,15.25,49.27,1034.19,2061.78,2982.41,2759.18,3114.76,600.11,620.86,14.43,0000 0000 0000 0000 000000
2016-04-24 00:10:28,0.05,1.54,0.00,16.17,20.94,24.79,15.23,49.15,1034.20,2061.60,2981.18,2758.19,3113.63,600.30,620.99,14.48,0000 0000 0000 0000 000000
2016-04-24 00:15:30,0.04,1.54,0.00,16.20,20.97,24.80,15.17,49.27,1034.21,2061.32,2979.58,2757.12,3112.39,599.94,620.53,14.53,0000 0000 0000 0000 000000
2016-04-24 00:20:31,0.07,1.54,0.00,16.24,21.00,24.86,15.22,49.35,1034.23,2061.11,2977.96,2755.99,3111.07,600.04,620.63,14.58,0000 0000 0000 0000 000000
2016-04-24 00:25:32,0.07,1.55,0.00,16.26,21.03,24.89,15.19,49.27,1034.23,2061.04,2976.38,2754.95,3109.85,599.74,620.12,14.63,0000 0000 0000 0000 000000
2016-04-24 00:30:33,0.08,1.55,0.00,16.31,21.05,24.89,15.18,49.42,1034.22,2061.03,2975.29,2753.89,3108.69,599.84,620.21,14.68,0000 0000 0000 0000 000000
2016-04-24 00:35:35,0.09,1.55,0.00,16.34,21.08,24.98,15.22,49.26,1034.26,2061.00,2973.70,2752.75,3107.41,599.76,620.08,14.74,0000 0000 0000 0000 000000
2016-04-24 00:40:36,0.07,1.56,0.00,16.39,21.12,24.98,15.18,49.25,1034.32,2061.00,2972.23,2751.73,3106.16,599.92,620.18,14.79,0000 0000 0000 0000 000000
2016-04-24 00:45:37,0.09,1.56,0.00,16.43,21.16,25.04,15.20,49.29,1034.33,2060.99,2970.69,2750.62,3104.75,600.00,620.19,14.84,0000 0000 0000 0000 000000
2016-04-24 00:50:39,0.07,1.57,0.00,16.46,21.19,25.17,15.15,49.32,1034.41,2060.95,2969.26,2749.55,3103.49,599.69,619.85,14.89,0000 0000 0000 0000 000000
2016-04-24 00:55:40,0.07,1.57,0.00,16.51,21.23,25.11,15.19,49.37,1034.48,2060.88,2967.75,2748.44,3102.17,599.95,620.02,14.94,0000 0000 0000 0000 000000
2016-04-24 01:00:41,0.04,1.57,0.00,16.55,21.27,25.17,15.20,49.35,1034.40,2060.47,2966.22,2747.31,3100.77,599.85,619.84,14.99,0000 0000 0000 0000 000000
2016-04-24 01:05:42,0.07,1.58,0.00,16.59,21.31,25.20,15.24,49.44,1034.33,2060.21,2964.57,2746.14,3099.50,599.92,619.75,15.04,0000 0000 0000 0000 000000
2016-04-24 01:10:44,0.08,1.58,0.00,16.63,21.36,25.19,15.19,49.37,1034.53,2060.02,2962.93,2744.88,3098.05,600.15,620.03,15.09,0000 0000 0000 0000 000000
2016-04-24 01:15:45,0.09,1.58,0.00,16.67,21.40,25.24,15.27,49.53,1034.64,2060.00,2961.31,2743.69,3096.64,600.49,620.40,15.14,0000 0000 0000 0000 000000
2016-04-24 01:20:46,0.09,1.59,0.00,16.72,21.44,25.28,15.18,49.41,1034.66,2060.00,2959.58,2742.45,3095.19,600.05,619.92,15.19,0000 0000 0000 0000 000000
2016-04-24 01:25:47,0.09,1.59,0.00,16.78,21.49,25.35,15.18,49.33,1034.64,2059.97,2957.90,2741.21,3093.74,600.34,619.93,15.24,0000 0000 0000 0000 000000
2016-04-24 01:30:49,0.09,1.60,0.00,16.82,21.53,25.35,15.21,49.44,1034.60,2059.90,2956.22,2739.89,3092.31,599.79,619.33,15.29,0000 0000 0000 0000 000000
2016-04-24 01:35:50,0.02,1.60,0.00,16.87,21.58,25.43,15.24,49.57,1034.53,2059.26,2954.50,2738.65,3090.80,599.87,619.14,15.34,0000 0000 0000 0000 000000
2016-04-24 01:40:51,0.07,1.60,0.00,16.91,21.63,25.49,15.16,49.27,1034.63,2059.03,2953.36,2737.52,3089.57,599.93,619.24,15.39,0000 0000 0000 0000 000000
2016-04-24 01:45:52,0.08,1.61,0.00,16.98,21.67,25.49,15.16,49.34,1034.68,2059.00,2951.78,2736.39,3088.23,599.84,619.05,15.44,0000 0000 0000 0000 000000
2016-04-24 01:50:53,0.08,1.61,0.00,17.04,21.72,25.56,15.21,49.37,1034.68,2058.99,2950.12,2735.16,3086.82,599.99,619.08,15.49,0000 0000 0000 0000 000000
2016-04-24 01:55:54,0.10,1.62,0.00,17.07,21.76,25.57,15.19,49.48,1034.68,2058.97,2948.36,2733.89,3085.37,600.10,619.01,15.54,0000 0000 0000 0000 000000
2016-04-24 02:00:55,0.09,1.62,0.00,17.14,21.80,25.63,15.18,49.45,1034.68,2058.78,2946.68,2732.62,3083.93,600.03,618.98,15.59,0000 0000 0000 0000 000000
2016-04-24 02:05:57,0.02,1.62,0.00,17.19,21.85,25.66,15.18,49.26,1034.68,2058.17,2945.07,2731.42,3082.49,600.14,618.87,15.64,0000 0000 0000 0000 000000
2016-04-24 02:10:58,0.08,1.63,0.00,17.25,21.89,25.73,15.15,49.52,1034.69,2058.02,2943.52,2730.17,3081.05,599.98,618.61,15.69,0000 0000 0000 0000 000000
2016-04-24 02:15:59,0.10,1.63,0.00,17.31,21.94,25.76,15.14,49.33,1034.68,2058.00,2941.80,2728.89,3079.61,599.79,618.35,15.74,0000 0000 0000 0000 000000
2016-04-24 02:21:00,0.10,1.64,0.00,17.38,21.99,25.82,15.10,49.29,1034.69,2058.00,2939.97,2727.64,3078.04,599.83,618.19,15.79,0000 0000 0000 0000 000000
2016-04-24 02:26:01,0.08,1.64,0.00,17.41,22.03,25.85,15.17,49.45,1034.69,2057.89,2938.25,2726.34,3076.56,600.08,618.35,15.84,0000 0000 0000 0000 000000
2016-04-24 02:31:03,0.03,1.65,0.00,17.48,22.08,25.87,15.17,49.56,1034.72,2057.32,2936.54,2725.01,3075.00,600.20,618.38,15.89,0000 0000 0000 0000 000000
2016-04-24 02:36:04,0.09,1.65,0.00,17.54,22.14,25.94,15.17,49.57,1034.81,2057.05,2934.86,2723.78,3073.57,600.11,618.27,15.94,0000 0000 0000 0000 000000
2016-04-24 02:41:06,0.09,1.65,0.00,17.61,22.19,25.96,15.19,49.58,1035.01,2057.01,2933.21,2722.53,3072.09,600.17,618.24,15.99,0000 0000 0000 0000 000000
2016-04-24 02:46:07,0.10,1.66,0.00,17.68,22.24,26.03,15.07,49.59,1035.16,2056.99,2931.53,2721.13,3070.63,599.86,617.73,16.04,0000 0000 0000 0000 000000
2016-04-24 02:51:08,0.10,1.66,0.00,17.75,22.30,26.08,15.15,49.52,1035.17,2056.97,2929.79,2719.83,3069.18,600.16,618.04,16.09,0000 0000 0000 0000 000000
2016-04-24 02:56:10,0.04,1.67,0.00,17.81,22.35,26.14,15.14,49.55,1035.17,2056.52,2928.08,2718.53,3067.65,600.05,617.81,16.14,0000 0000 0000 0000 000000
2016-04-24 03:01:11,0.07,1.67,0.00,17.87,22.41,26.17,15.14,49.53,1035.17,2056.03,2926.46,2717.17,3066.12,600.06,617.68,16.19,0000 0000 0000 0000 000000
2016-04-24 03:06:12,0.11,1.67,0.00,17.93,22.47,26.25,15.14,49.33,1035.17,2056.00,2924.69,2715.80,3064.58,600.39,617.89,16.24,0000 0000 0000 0000 000000
2016-04-24 03:11:14,0.10,1.68,0.00,17.98,22.52,26.29,15.08,49.52,1035.17,2055.98,2922.88,2714.44,3062.96,599.74,617.13,16.29,0000 0000 0000 0000 000000
2016-04-24 03:16:15,0.07,1.68,0.00,18.06,22.58,26.34,15.11,49.42,1035.17,2055.73,2921.12,2713.00,3061.32,599.64,616.84,16.34,0000 0000 0000 0000 000000
2016-04-24 03:21:16,0.06,1.69,0.00,18.13,22.64,26.38,15.08,49.56,1035.17,2055.14,2919.36,2711.65,3059.72,599.78,616.89,16.39,0000 0000 0000 0000 000000
2016-04-24 03:26:17,0.09,1.69,0.00,18.20,22.70,26.45,15.11,49.66,1035.17,2055.00,2917.60,2710.27,3058.02,600.08,616.85,16.44,0000 0000 0000 0000 000000
2016-04-24 03:31:19,0.11,1.70,0.00,18.27,22.76,26.48,15.08,49.58,1035.17,2054.99,2915.75,2708.78,3056.44,599.90,616.70,16.49,0000 0000 0000 0000 000000
2016-04-24 03:36:20,0.10,1.70,0.00,18.35,22.82,26.53,14.98,49.42,1035.17,2054.96,2913.94,2707.48,3054.82,599.75,616.30,16.54,0000 0000 0000 0000 000000
2016-04-24 03:41:21,0.02,1.71,0.00,18.40,22.88,26.57,15.05,49.63,1035.17,2054.28,2912.29,2706.07,3053.31,599.98,616.49,16.59,0000 0000 0000 0000 000000
2016-04-24 03:46:22,0.10,1.71,0.00,18.49,22.94,26.61,15.10,49.45,1035.17,2054.04,2910.49,2704.69,3051.69,600.05,616.37,16.64,0000 0000 0000 0000 000000
2016-04-24 03:51:24,0.10,1.71,0.00,18.54,23.00,26.69,15.10,49.46,1035.17,2054.00,2908.60,2703.32,3050.02,599.84,616.02,16.69,0000 0000 0000 0000 000000
2016-04-24 03:56:25,0.10,1.72,0.00,18.62,23.06,26.73,15.13,49.63,1035.18,2053.98,2906.77,2701.87,3048.45,600.04,615.99,16.74,0000 0000 0000 0000 000000
2016-04-24 04:01:26,0.05,1.72,0.00,18.69,23.12,26.79,15.18,49.52,1035.18,2053.56,2905.04,2700.53,3046.78,600.22,616.00,16.79,0000 0000 0000 0000 000000
2016-04-24 04:06:27,0.08,1.73,0.00,18.77,23.18,26.81,15.09,49.43,1035.18,2053.04,2903.19,2699.03,3045.12,599.91,615.72,16.84,0000 0000 0000 0000 000000
2016-04-24 04:11:29,0.09,1.73,0.00,18.84,23.24,26.87,15.07,49.53,1035.20,2053.00,2901.70,2697.74,3043.63,600.24,615.82,16.89,0000 0000 0000 0000 000000
2016-04-24 04:16:30,0.10,1.74,0.00,18.92,23.30,26.90,15.08,49.38,1035.24,2052.98,2900.01,2696.53,3042.10,599.95,615.47,16.94,0000 0000 0000 0000 000000
2016-04-24 04:21:31,0.03,1.74,0.00,18.97,23.36,26.97,15.01,49.30,1035.24,2052.37,2898.02,2695.03,3040.51,599.63,614.97,16.99,0000 0000 0000 0000 000000
2016-04-24 04:26:32,0.09,1.74,0.00,19.05,23.42,27.01,15.09,49.42,1035.46,2052.01,2896.48,2693.62,3039.02,600.03,615.33,17.04,0000 0000 0000 0000 000000
2016-04-24 04:31:34,0.10,1.75,0.00,19.12,23.48,27.05,15.09,49.43,1035.54,2052.00,2894.79,2692.42,3037.43,600.22,615.43,17.09,0000 0000 0000 0000 000000
2016-04-24 04:36:35,0.09,1.75,0.00,19.18,23.54,27.11,15.06,49.42,1035.57,2051.92,2892.91,2691.01,3035.79,600.31,615.27,17.14,0000 0000 0000 0000 000000
2016-04-24 04:41:36,0.04,1.76,0.00,19.25,23.60,27.17,15.04,49.46,1035.57,2051.37,2891.14,2689.63,3034.20,599.88,614.86,17.19,0000 0000 0000 0000 000000
2016-04-24 04:46:37,0.09,1.76,0.00,19.32,23.67,27.21,15.13,49.45,1035.61,2051.02,2889.32,2688.26,3032.59,600.20,615.02,17.24,0000 0000 0000 0000 000000
2016-04-24 04:51:38,0.11,1.76,0.00,19.40,23.73,27.25,14.97,49.33,1035.65,2051.00,2887.65,2686.89,3030.99,599.80,614.49,17.29,0000 0000 0000 0000 000000
2016-04-24 04:56:40,0.09,1.77,0.00,19.48,23.79,27.31,15.11,49.41,1035.66,2050.92,2885.85,2685.57,3029.46,600.15,614.73,17.34,0000 0000 0000 0000 000000
2016-04-24 05:01:41,0.03,1.77,0.00,19.53,23.86,27.36,14.94,49.36,1035.66,2050.35,2883.99,2684.26,3027.76,599.78,614.15,17.39,0000 0000 0000 0000 000000
2016-04-24 05:06:42,0.11,1.78,0.00,19.60,23.92,27.42,15.03,49.38,1035.66,2050.03,2882.10,2682.76,3026.11,600.12,614.33,17.44,0000 0000 0000 0000 000000
2016-04-24 05:11:44,0.11,1.78,0.00,19.66,23.98,27.50,14.98,49.38,1035.66,2050.00,2880.15,2681.28,3024.41,599.98,614.11,17.49,0000 0000 0000 0000 000000
2016-04-24 05:16:45,0.10,1.79,0.00,19.73,24.04,27.56,15.04,49.27,1035.66,2049.93,2878.45,2679.82,3022.68,600.13,614.12,17.54,0000 0000 0000 0000 000000
2016-04-24 05:21:46,0.03,1.79,0.00,19.80,24.10,27.61,14.99,49.23,1035.66,2049.22,2876.56,2678.38,3020.96,599.98,613.78,17.60,0000 0000 0000 0000 000000
2016-04-24 05:26:48,0.12,1.80,0.00,19.87,24.16,27.66,14.91,49.32,1035.66,2049.02,2874.69,2676.81,3019.22,599.66,613.35,17.65,0000 0000 0000 0000 000000
2016-04-24 05:31:49,0.11,1.80,0.00,19.91,24.23,27.70,15.03,49.34,1035.66,2048.99,2872.75,2675.34,3017.48,599.97,613.60,17.70,0000 0000 0000 0000 000000
2016-04-24 05:36:50,0.10,1.81,0.00,19.97,24.29,27.77,15.00,49.32,1035.66,2048.92,2870.94,2673.90,3015.86,600.09,613.62,17.75,0000 0000 0000 0000 000000
2016-04-24 05:41:51,0.04,1.81,0.00,20.04,24.35,27.83,14.95,49.29,1035.66,2048.27,2869.04,2672.48,3014.13,600.04,613.53,17.80,0000 0000 0000 0000 000000
2016-04-24 05:46:53,0.11,1.81,0.00,20.10,24.42,27.92,15.03,49.25,1035.66,2048.01,2867.07,2670.87,3012.36,600.02,613.24,17.85,0000 0000 0000 0000 000000
2016-04-24 05:51:54,0.11,1.82,0.00,20.15,24.48,27.95,14.96,49.21,1035.66,2047.99,2865.13,2669.38,3010.60,600.03,613.03,17.90,0000 0000 0000 0000 000000
2016-04-24 05:56:55,0.08,1.83,0.00,20.22,24.54,28.04,14.99,49.22,1035.66,2047.66,2863.23,2667.86,3008.92,599.86,612.80,17.95,0000 0000 0000 0000 000000
2016-04-24 06:01:57,0.07,1.83,0.00,20.30,24.60,28.08,14.92,49.13,1035.66,2047.06,2861.07,2666.24,3007.14,599.61,612.43,18.00,0000 0000 0000 0000 000000
2016-04-24 06:06:58,0.11,1.83,0.00,20.35,24.66,28.13,14.96,49.26,1035.66,2047.00,2859.27,2664.70,3005.49,600.22,612.91,18.05,0000 0000 0000 0000 000000
2016-04-24 06:11:59,0.12,1.84,0.00,20.41,24.72,28.19,14.96,49.21,1035.68,2047.00,2857.23,2663.25,3003.68,599.95,612.49,18.10,0000 0000 0000 0000 000000
2016-04-24 06:17:00,0.14,1.85,0.00,20.46,24.78,28.25,14.96,48.98,1035.67,2046.99,2855.07,2661.53,3001.77,599.81,612.31,18.15,0000 0000 0000 0000 000000
2016-04-24 06:22:01,0.09,1.85,0.00,20.52,24.84,28.33,14.83,49.19,1035.66,2046.80,2853.03,2659.88,2999.94,600.01,612.43,18.20,0000 0000 0000 0000 000000
2016-04-24 06:27:03,0.06,1.86,0.00,20.58,24.90,28.38,14.99,49.17,1035.67,2046.06,2850.89,2658.21,2997.97,599.87,612.01,18.25,0000 0000 0000 0000 000000
2016-04-24 06:32:04,0.13,1.86,0.00,20.64,24.95,28.43,14.94,49.28,1035.68,2046.00,2848.83,2656.59,2996.16,599.86,611.93,18.30,0000 0000 0000 0000 000000
2016-04-24 06:37:05,0.12,1.87,0.00,20.71,25.01,28.48,14.98,49.20,1035.69,2045.99,2846.84,2655.00,2994.36,600.17,612.02,18.35,0000 0000 0000 0000 000000
2016-04-24 06:42:07,0.09,1.87,0.00,20.77,25.06,28.54,14.97,49.17,1035.68,2045.84,2844.81,2653.49,2992.60,600.17,612.02,18.40,0000 0000 0000 0000 000000
2016-04-24 06:47:08,0.04,1.88,0.00,20.83,25.12,28.59,14.93,49.16,1035.73,2045.23,2842.99,2652.06,2990.98,600.14,611.85,18.45,0000 0000 0000 0000 000000
2016-04-24 06:52:09,0.11,1.88,0.00,20.89,25.17,28.64,14.90,49.03,1035.72,2045.00,2841.12,2650.63,2989.25,600.03,611.62,18.50,0000 0000 0000 0000 000000
2016-04-24 06:57:11,0.10,1.89,0.00,20.96,25.22,28.71,14.82,49.00,1035.71,2044.99,2839.40,2649.25,2987.70,599.92,611.36,18.55,0000 0000 0000 0000 000000
2016-04-24 07:02:12,0.08,1.89,0.00,21.02,25.27,28.77,14.94,48.82,1035.72,2044.77,2837.60,2647.86,2986.11,599.97,611.27,18.60,0000 0000 0000 0000 000000
2016-04-24 07:07:14,0.04,1.89,0.00,21.08,25.32,28.83,14.94,48.71,1035.73,2044.14,2835.86,2646.62,2984.66,599.96,611.15,18.65,0000 0000 0000 0000 000000
2016-04-24 07:12:15,0.08,1.90,0.00,21.15,25.37,28.86,14.94,48.79,1035.77,2044.02,2834.26,2645.36,2983.23,599.92,611.12,18.70,0000 0000 0000 0000 000000
2016-04-24 07:17:16,0.10,1.90,0.00,21.19,25.41,28.94,14.86,48.89,1035.87,2044.00,2832.61,2644.13,2981.76,599.67,610.78,18.75,0000 0000 0000 0000 000000
2016-04-24 07:22:18,0.10,1.91,0.00,21.25,25.46,28.97,14.94,48.92,1036.06,2043.98,2830.93,2642.82,2980.33,599.91,610.95,18.80,0000 0000 0000 0000 000000
2016-04-24 07:27:19,0.08,1.91,0.00,21.31,25.51,29.03,14.90,48.87,1036.06,2043.87,2829.31,2641.59,2978.82,600.15,611.11,18.85,0000 0000 0000 0000 000000
2016-04-24 07:32:20,0.02,1.92,0.00,21.38,25.56,29.07,14.97,48.92,1036.13,2043.24,2827.63,2640.35,2977.44,600.19,611.15,18.90,0000 0000 0000 0000 000000
2016-04-24 07:37:22,0.08,1.92,0.00,21.45,25.60,29.09,14.86,48.86,1036.14,2043.01,2825.93,2639.06,2975.95,600.01,610.50,18.95,0000 0000 0000 0000 000000
2016-04-24 07:42:23,0.10,1.92,0.00,21.52,25.65,29.16,14.92,48.86,1036.15,2043.00,2824.31,2637.84,2974.54,600.22,610.77,19.00,0000 0000 0000 0000 000000
2016-04-24 07:47:25,0.09,1.93,0.00,21.59,25.70,29.23,14.90,48.79,1036.15,2042.95,2822.73,2636.71,2973.09,599.91,610.30,19.05,0000 0000 0000 0000 000000
2016-04-24 07:52:26,0.06,1.93,0.00,21.66,25.75,29.26,14.82,48.88,1036.15,2042.69,2821.27,2635.55,2971.76,599.96,610.08,19.10,0000 0000 0000 0000 000000
2016-04-24 07:57:27,0.04,1.93,0.00,21.72,25.81,29.30,14.99,48.73,1036.15,2042.09,2819.75,2634.41,2970.50,599.98,610.11,19.15,0000 0000 0000 0000 000000
2016-04-24 08:02:29,0.08,1.94,0.00,21.77,25.86,29.33,14.90,48.64,1036.16,2042.00,2818.07,2633.27,2969.11,600.16,610.16,19.20,0000 0000 0000 0000 000000
2016-04-24 08:07:30,0.09,1.94,0.00,21.84,25.91,29.38,14.84,48.60,1036.20,2042.00,2816.64,2632.20,2967.86,599.72,609.63,19.25,0000 0000 0000 0000 000000
2016-04-24 08:12:31,0.09,1.95,0.00,21.90,25.96,29.47,14.86,48.86,1036.41,2041.97,2815.31,2630.99,2966.55,599.84,609.79,19.30,0000 0000 0000 0000 000000
2016-04-24 08:17:32,0.03,1.95,0.00,21.95,26.01,29.51,14.83,48.83,1036.48,2041.52,2813.64,2629.87,2965.25,599.79,609.57,19.35,0000 0000 0000 0000 000000
2016-04-24 08:22:33,0.05,1.95,0.00,22.01,26.06,29.57,14.88,48.75,1036.57,2041.08,2812.18,2628.83,2963.96,600.27,610.06,19.40,0000 0000 0000 0000 000000
2016-04-24 08:27:35,0.10,1.96,0.00,22.06,26.10,29.62,14.86,48.72,1036.64,2041.00,2810.66,2627.69,2962.66,599.96,609.69,19.45,0000 0000 0000 0000 000000
2016-04-24 08:32:36,0.08,1.96,0.00,22.11,26.14,29.66,14.91,48.63,1036.64,2041.00,2809.30,2626.69,2961.48,600.14,609.74,19.50,0000 0000 0000 0000 000000
2016-04-24 08:37:37,0.09,1.97,0.00,22.17,26.19,29.74,14.97,48.73,1036.62,2040.97,2807.71,2625.60,2960.30,600.20,609.63,19.55,0000 0000 0000 0000 000000
2016-04-24 08:42:38,0.02,1.97,0.00,22.21,26.23,29.78,14.80,48.57,1036.63,2040.75,2806.61,2624.69,2959.15,599.80,609.26,19.60,0000 0000 0000 0000 000000
2016-04-24 08:47:40,0.03,1.97,0.00,22.25,26.27,29.83,14.88,48.67,1036.64,2040.11,2805.68,2623.65,2958.08,599.96,609.29,19.65,0000 0000 0000 0000 000000
2016-04-24 08:52:41,0.08,1.97,0.00,22.28,26.31,29.86,14.88,48.55,1036.64,2040.01,2804.20,2622.62,2956.71,600.20,609.46,19.70,0000 0000 0000 0000 000000
2016-04-24 08:57:42,0.09,1.98,0.00,22.32,26.35,29.93,14.98,48.58,1036.64,2040.00,2802.66,2621.54,2955.44,600.53,609.69,19.75,0000 0000 0000 0000 000000
2016-04-24 09:02:43,0.07,1.98,0.00,22.75,26.40,29.91,14.80,48.24,1036.64,2039.98,2801.32,2620.49,2954.24,600.39,608.75,19.80,0000 0000 0000 0000 000000
2016-04-24 09:07:44,0.05,1.99,0.00,23.23,26.47,30.07,14.80,48.31,1036.64,2039.65,2799.79,2619.33,2952.89,600.04,607.34,19.85,0000 0000 0000 0000 000000
2016-04-24 09:12:46,0.10,1.99,0.00,23.48,26.54,30.16,14.73,48.38,1036.64,2039.04,2797.35,2617.67,2951.04,600.00,606.73,19.90,0000 0000 0000 0000 000000
2016-04-24 09:17:47,0.12,2.00,0.00,23.62,26.62,30.19,14.73,48.34,1036.68,2038.96,2794.98,2616.03,2949.16,599.95,606.53,19.95,0000 0000 0000 0000 000000
2016-04-24 09:22:48,0.04,2.00,0.00,23.70,26.70,30.29,14.75,48.24,1036.78,2038.34,2793.13,2614.55,2947.49,600.12,606.55,20.00,0000 0000 0000 0000 000000
2016-04-24 09:27:50,0.10,2.00,0.00,23.77,26.79,30.36,14.75,48.27,1036.86,2038.01,2791.36,2613.13,2945.86,600.28,606.61,20.05,0000 0000 0000 0000 000000
2016-04-24 09:32:51,0.11,2.01,0.00,23.84,26.87,30.43,14.68,48.31,1036.75,2037.91,2789.39,2611.67,2944.27,599.97,606.18,20.10,0000 0000 0000 0000 000000
2016-04-24 09:37:52,0.03,2.01,0.00,23.93,26.95,30.51,14.73,48.30,1036.75,2037.20,2787.61,2610.30,2942.65,599.95,605.88,20.15,0000 0000 0000 0000 000000
2016-04-24 09:42:54,0.09,2.02,0.00,23.99,27.03,30.59,14.79,48.30,1036.78,2037.00,2785.91,2608.93,2941.21,600.15,605.94,20.20,0000 0000 0000 0000 000000
2016-04-24 09:47:55,0.11,2.02,0.00,24.06,27.11,30.64,14.78,48.36,1036.79,2036.97,2784.10,2607.62,2939.65,600.13,605.82,20.25,0000 0000 0000 0000 000000
2016-04-24 09:52:56,0.01,2.02,0.00,24.09,27.18,30.69,14.78,48.42,1037.04,2036.30,2782.52,2606.36,2938.15,600.12,605.92,20.30,0000 0000 0000 0000 000000
2016-04-24 09:57:57,0.11,2.03,0.00,24.15,27.25,30.70,14.72,48.27,1037.10,2036.01,2780.38,2604.89,2936.53,600.16,605.99,20.35,0000 0000 0000 0000 000000
2016-04-24 10:02:59,0.10,2.03,0.00,24.15,27.31,30.73,14.78,48.24,1037.06,2035.98,2778.70,2603.69,2935.18,600.02,605.68,20.40,0000 0000 0000 0000 000000
2016-04-24 10:08:00,0.00,2.04,0.00,24.19,27.37,30.77,14.75,48.32,1037.09,2035.52,2777.59,2602.69,2933.97,599.86,605.48,20.45,0000 0000 0000 0000 000000
2016-04-24 10:13:01,0.06,2.04,0.00,24.22,27.43,30.82,14.71,48.10,1037.05,2035.02,2776.25,2601.57,2932.72,600.10,605.44,20.50,0000 0000 0000 0000 000000
2016-04-24 10:18:02,0.09,2.04,0.00,24.15,27.48,30.85,14.77,48.27,1036.98,2035.00,2774.93,2600.59,2931.58,600.03,605.52,20.55,0000 0000 0000 0000 000000
2016-04-24 10:23:03,0.07,2.05,0.00,24.10,27.53,30.89,14.72,48.31,1036.93,2034.83,2773.32,2599.42,2930.22,599.98,605.67,20.60,0000 0000 0000 0000 000000
2016-04-24 10:28:04,0.02,2.05,0.00,24.08,27.57,30.96,14.67,48.15,1036.99,2034.24,2772.08,2598.38,2929.12,599.74,605.54,20.65,0000 0000 0000 0000 000000
2016-04-24 10:33:05,0.07,2.05,0.00,24.02,27.61,31.00,14.74,48.23,1037.06,2034.01,2770.94,2597.48,2928.03,599.86,605.77,20.70,0000 0000 0000 0000 000000
2016-04-24 10:38:07,0.09,2.05,0.00,23.98,27.65,31.03,14.66,48.19,1036.89,2034.00,2769.39,2596.37,2926.74,599.97,605.93,20.75,0000 0000 0000 0000 000000
2016-04-24 10:43:08,0.09,2.06,0.00,23.96,27.69,31.07,14.68,48.14,1036.86,2033.97,2767.81,2595.33,2925.52,599.75,605.73,20.80,0000 0000 0000 0000 000000
2016-04-24 10:48:09,0.04,2.06,0.00,23.95,27.73,31.09,14.67,48.16,1036.86,2033.72,2766.41,2594.31,2924.36,599.71,605.60,20.85,0000 0000 0000 0000 000000
2016-04-24 10:53:10,0.03,2.06,0.00,23.90,27.76,31.13,14.72,48.23,1036.83,2033.19,2765.11,2593.26,2923.17,600.11,606.18,20.90,0000 0000 0000 0000 000000
2016-04-24 10:58:11,0.10,2.07,0.00,23.89,27.79,31.17,14.75,48.22,1036.72,2033.01,2763.58,2592.17,2921.85,599.96,606.02,20.95,0000 0000 0000 0000 000000
2016-04-24 11:03:13,0.11,2.07,0.00,23.96,27.82,31.22,14.74,48.13,1036.70,2033.00,2761.41,2590.85,2920.37,600.17,606.02,21.00,0000 0000 0000 0000 000000
2016-04-24 11:08:14,0.05,2.08,0.00,24.00,27.85,31.25,14.78,48.09,1036.69,2032.98,2760.79,2589.92,2919.47,600.19,605.88,21.05,0000 0000 0000 0000 000000
2016-04-24 11:13:15,0.09,2.08,0.00,23.99,27.87,31.33,14.78,48.20,1036.68,2032.94,2758.93,2588.87,2918.07,599.87,605.69,21.10,0000 0000 0000 0000 000000
2016-04-24 11:18:17,0.06,2.08,0.00,23.97,27.89,31.37,14.81,48.13,1036.66,2032.74,2757.39,2587.86,2916.88,600.06,605.84,21.15,0000 0000 0000 0000 000000
2016-04-24 11:23:18,0.04,2.09,0.00,23.93,27.91,31.40,14.77,48.16,1036.66,2032.32,2756.00,2586.84,2915.77,599.98,605.83,21.20,0000 0000 0000 0000 000000
2016-04-24 11:28:19,0.08,2.09,0.00,23.89,27.92,31.42,14.78,48.03,1036.66,2032.06,2754.30,2585.80,2914.51,600.12,606.09,21.25,0000 0000 0000 0000 000000
2016-04-24 11:33:21,0.08,2.10,0.00,23.78,27.92,31.46,14.76,48.02,1036.65,2032.11,2752.78,2584.91,2913.35,599.53,605.49,21.30,0000 0000 0000 0000 000000
2016-04-24 11:38:22,0.05,2.10,0.00,23.73,27.93,31.45,14.77,47.92,1036.66,2032.03,2751.92,2584.04,2912.53,599.85,606.09,21.35,0000 0000 0000 0000 000000
2016-04-24 11:43:24,0.06,2.10,0.00,23.65,27.95,31.47,14.84,48.02,1036.64,2032.00,2751.10,2583.20,2911.65,600.22,606.66,21.40,0000 0000 0000 0000 000000
2016-04-24 11:48:25,0.08,2.11,0.00,23.48,27.94,31.49,14.82,47.92,1036.64,2032.00,2749.79,2582.25,2910.52,600.20,607.00,21.45,0000 0000 0000 0000 000000
2016-04-24 11:53:26,0.08,2.11,0.00,23.30,27.92,31.53,14.80,47.96,1036.64,2032.00,2748.23,2581.41,2909.39,599.74,607.06,21.50,0000 0000 0000 0000 000000
2016-04-24 11:58:27,0.08,2.11,0.00,23.12,27.89,31.58,14.89,47.97,1036.64,2032.00,2746.82,2580.58,2908.31,599.90,607.42,21.55,0000 0000 0000 0000 000000
2016-04-24 12:03:29,0.07,2.12,0.00,22.94,27.86,31.68,14.92,48.08,1036.64,2032.01,2745.32,2579.71,2907.40,600.51,608.40,21.60,0000 0000 0000 0000 000000
2016-04-24 12:08:30,0.05,2.12,0.00,22.80,27.81,31.75,14.90,48.08,1036.64,2032.03,2744.03,2579.01,2906.49,599.98,608.13,21.66,0000 0000 0000 0000 000000
2016-04-24 12:13:31,0.14,2.13,0.00,22.64,27.76,31.70,14.92,47.94,1036.64,2032.37,2742.65,2578.31,2905.61,600.00,608.45,21.71,0000 0000 0000 0000 000000
2016-04-24 12:18:32,0.06,2.13,0.00,22.49,27.70,31.56,14.89,47.95,1036.64,2032.85,2741.73,2577.87,2905.00,599.95,608.70,21.76,0000 0000 0000 0000 000000
2016-04-24 12:23:34,0.08,2.14,0.00,22.36,27.64,31.39,14.96,47.98,1036.63,2032.99,2740.56,2577.11,2904.24,600.12,609.21,21.81,0000 0000 0000 0000 000000
2016-04-24 12:28:35,0.05,2.14,0.00,22.24,27.58,31.19,14.93,48.01,1036.64,2033.00,2739.21,2576.71,2903.73,599.98,609.37,21.86,0000 0000 0000 0000 000000
2016-04-24 12:33:36,0.08,2.14,0.00,22.13,27.51,31.18,14.94,48.02,1036.64,2033.23,2738.32,2576.03,2903.02,600.21,609.82,21.91,0000 0000 0000 0000 000000
2016-04-24 12:38:38,0.13,2.15,0.00,22.01,27.44,31.06,14.93,48.08,1036.63,2033.90,2737.28,2575.43,2902.24,599.88,609.69,21.96,0000 0000 0000 0000 000000
2016-04-24 12:43:39,0.03,2.15,0.00,21.94,27.38,30.99,14.88,48.01,1036.64,2033.99,2736.19,2575.00,2901.81,599.77,609.68,22.01,0000 0000 0000 0000 000000
2016-04-24 12:48:40,0.05,2.15,0.00,21.84,27.31,30.94,15.01,48.05,1036.64,2034.04,2735.49,2574.72,2901.06,600.33,610.58,22.06,0000 0000 0000 0000 000000
2016-04-24 12:53:41,0.14,2.16,0.00,21.73,27.24,30.93,14.92,48.05,1036.63,2034.67,2734.09,2574.02,2900.30,600.03,610.47,22.11,0000 0000 0000 0000 000000